sat.trackr.live / text

‹ back to catalog

STARLINK-30176

NORAD 57477 · 2023-107W

PAYLOAD ACTIVE UNKNOWN

§ Identity

Operator
Country
US
Launch date
2023-07-28
Launch site
AFETR
Launch vehicle
Mass (kg)
RCS (m²)

Purposes: comms

External: N2YO · Heavens-Above · Gunter

§ Orbital elements

Epoch: 2026-05-25T00:28:27.977664Z

Period
94.27 min
Inclination
43.0008°
Eccentricity
0.0001721
Mean motion
15.27588313 rev/d
Perigee alt
481.8 km
Apogee alt
484.2 km
Semi-major
6,861.2 km
B*
3.8696e-4
RAAN
264.7815°
Arg perigee
267.8347°
Mean anomaly
92.2308°
Rev number
15,682

§ Raw data

STARLINK-301761 57477U 23107W   26145.01976826  .00010404  00000+0  38696-3 0  99932 57477  43.0008 264.7815 0001721 267.8347  92.2308 15.27588313156827

JSON: /api/v1/satellites/57477 · /tle

For live sub-satellite position, see the globe view (requires WebGL).

§ Visibility from observer

Set your observer location to see the next 7 days of passes ≥ 10°. The values pass through the URL so the page stays shareable.

No JS? Fill the form by hand. The geolocation button needs JavaScript.